Torna al catalogo

STARLINK-11112

AttivoComunicazioniVLEO
NORAD 60115·PAYLOAD·🇺🇸 United States

Lanciato Jun 24, 2024 da Vandenberg Space Force Base

Loading…

Prossimi Passaggi (prossime 24 ore)

TLE

AggiornatoSource: CelesTrak SupGP

Epoca: Sep 14, 2026, 21:26 UTC

1 60115C 24118C   26257.89354167  .00015025  00000+0  12366-3 0  2574
2 60115  53.1569   8.7576 0001117  73.4386  55.0203 15.69722481    19

Traccia STARLINK-11112 in tempo reale con AllMySat

Download on the App Store